![]() |
EMODnet Physics ERDDAP
Easier access to scientific data |
log in|
Brought to you by EMODnet Physics |
| Dataset Title: | NDBC - Collection of dew point temperature (DEWT) TimeSeries - IN SITU MultiPointTimeSeriesObservation
|
| Institution: | NDBC (Dataset ID: TS_DEWT_NDBC) |
| Information: | Summary
| License
| FGDC
| ISO 19115
| Metadata
| Background
| Subset
| Data Access Form
| Make a graph
|
| Name | Last modified | Size | Description | |
|---|---|---|---|---|
| Parent Directory | - | - | ||
| 45028_TS_DEWT_042016.nc | 26-Oct-2024 20:23 | 1335746 | ||
| 45028_TS_DEWT_052012.nc | 26-Oct-2024 20:24 | 5600265 | ||
| 45028_TS_DEWT_052013.nc | 26-Oct-2024 20:24 | 5510090 | ||
| 45028_TS_DEWT_052015.nc | 26-Oct-2024 20:24 | 450182 | ||
| 45028_TS_DEWT_052016.nc | 26-Oct-2024 20:24 | 437922 | ||
| 45028_TS_DEWT_052017.nc | 26-Oct-2024 20:24 | 435052 | ||
| 45028_TS_DEWT_052018.nc | 26-Oct-2024 20:24 | 450690 | ||
| 45028_TS_DEWT_052019.nc | 26-Oct-2024 20:24 | 450609 | ||
| 45028_TS_DEWT_052024.nc | 18-Jan-2026 17:18 | 449062 | ||
| 45028_TS_DEWT_052025.nc | 18-Jan-2026 17:19 | 451328 | ||
| 45028_TS_DEWT_062012.nc | 26-Oct-2024 20:24 | 449099 | ||
| 45028_TS_DEWT_062013.nc | 26-Oct-2024 20:24 | 450707 | ||
| 45028_TS_DEWT_062014.nc | 26-Oct-2024 20:24 | 423023 | ||
| 45028_TS_DEWT_062015.nc | 26-Oct-2024 20:24 | 430757 | ||
| 45028_TS_DEWT_062016.nc | 26-Oct-2024 20:24 | 439673 | ||
| 45028_TS_DEWT_062017.nc | 26-Oct-2024 20:24 | 1052748 | ||
| 45028_TS_DEWT_062018.nc | 26-Oct-2024 20:24 | 426785 | ||
| 45028_TS_DEWT_062019.nc | 26-Oct-2024 20:24 | 984878 | ||
| 45028_TS_DEWT_062022.nc | 26-Oct-2024 20:25 | 5423454 | ||
| 45028_TS_DEWT_062023.nc | 26-Oct-2024 20:25 | 431203 | ||
| 45028_TS_DEWT_062024.nc | 18-Jan-2026 17:18 | 1266338 | ||
| 45028_TS_DEWT_062025.nc | 18-Jan-2026 17:19 | 4284684 | ||
| 45028_TS_DEWT_072011.nc | 26-Oct-2024 20:25 | 432601 | ||
| 45028_TS_DEWT_072012.nc | 26-Oct-2024 20:25 | 1114033 | ||
| 45028_TS_DEWT_072013.nc | 26-Oct-2024 20:25 | 432768 | ||
| 45028_TS_DEWT_072014.nc | 26-Oct-2024 20:25 | 1106818 | ||
| 45028_TS_DEWT_072015.nc | 26-Oct-2024 20:25 | 447262 | ||
| 45028_TS_DEWT_072016.nc | 26-Oct-2024 20:25 | 432440 | ||
| 45028_TS_DEWT_072017.nc | 26-Oct-2024 20:25 | 1082998 | ||
| 45028_TS_DEWT_072018.nc | 26-Oct-2024 20:25 | 594927 | ||
| 45028_TS_DEWT_072019.nc | 26-Oct-2024 20:25 | 421643 | ||
| 45028_TS_DEWT_072020.nc | 26-Oct-2024 20:25 | 925989 | ||
| 45028_TS_DEWT_072021.nc | 26-Oct-2024 20:25 | 439968 | ||
| 45028_TS_DEWT_072022.nc | 26-Oct-2024 20:25 | 1008652 | ||
| 45028_TS_DEWT_072023.nc | 26-Oct-2024 20:25 | 1116252 | ||
| 45028_TS_DEWT_072024.nc | 18-Jan-2026 17:19 | 1031115 | ||
| 45028_TS_DEWT_072025.nc | 18-Jan-2026 17:20 | 428923 | ||
| 45028_TS_DEWT_082011.nc | 26-Oct-2024 20:26 | 1265916 | ||
| 45028_TS_DEWT_082012.nc | 26-Oct-2024 20:26 | 431862 | ||
| 45028_TS_DEWT_082013.nc | 26-Oct-2024 20:26 | 1587937 | ||
| 45028_TS_DEWT_082014.nc | 26-Oct-2024 20:26 | 633250 | ||
| 45028_TS_DEWT_082015.nc | 26-Oct-2024 20:26 | 1111674 | ||
| 45028_TS_DEWT_082016.nc | 26-Oct-2024 20:26 | 1262942 | ||
| 45028_TS_DEWT_082017.nc | 26-Oct-2024 20:26 | 449287 | ||
| 45028_TS_DEWT_082018.nc | 26-Oct-2024 20:26 | 437214 | ||
| 45028_TS_DEWT_082019.nc | 26-Oct-2024 20:26 | 1268245 | ||
| 45028_TS_DEWT_082020.nc | 26-Oct-2024 20:26 | 1028864 | ||
| 45028_TS_DEWT_082021.nc | 26-Oct-2024 20:26 | 1265813 | ||
| 45028_TS_DEWT_082022.nc | 26-Oct-2024 20:26 | 1114564 | ||
| 45028_TS_DEWT_082023.nc | 26-Oct-2024 20:26 | 631834 | ||
| 45028_TS_DEWT_082024.nc | 18-Jan-2026 17:19 | 1264458 | ||
| 45028_TS_DEWT_082025.nc | 18-Jan-2026 17:21 | 1113543 | ||
| 45028_TS_DEWT_092011.nc | 26-Oct-2024 20:26 | 1113303 | ||
| 45028_TS_DEWT_092012.nc | 26-Oct-2024 20:26 | 1265011 | ||
| 45028_TS_DEWT_092013.nc | 26-Oct-2024 20:26 | 1266124 | ||
| 45028_TS_DEWT_092014.nc | 26-Oct-2024 20:27 | 1263482 | ||
| 45028_TS_DEWT_092015.nc | 26-Oct-2024 20:27 | 1267320 | ||
| 45028_TS_DEWT_092016.nc | 26-Oct-2024 20:27 | 1110689 | ||
| 45028_TS_DEWT_092017.nc | 26-Oct-2024 20:27 | 1114112 | ||
| 45028_TS_DEWT_092018.nc | 26-Oct-2024 20:27 | 1265116 | ||
| 45028_TS_DEWT_092019.nc | 26-Oct-2024 20:27 | 676539 | ||
| 45028_TS_DEWT_092020.nc | 26-Oct-2024 20:27 | 1110104 | ||
| 45028_TS_DEWT_092021.nc | 26-Oct-2024 20:27 | 1266698 | ||
| 45028_TS_DEWT_092022.nc | 26-Oct-2024 20:27 | 430768 | ||
| 45028_TS_DEWT_092023.nc | 26-Oct-2024 20:27 | 1266044 | ||
| 45028_TS_DEWT_092025.nc | 18-Jan-2026 17:21 | 467629 | ||
| 45028_TS_DEWT_102011.nc | 26-Oct-2024 20:27 | 1102798 | ||
| 45028_TS_DEWT_102012.nc | 26-Oct-2024 20:27 | 1111946 | ||
| 45028_TS_DEWT_102013.nc | 26-Oct-2024 20:27 | 665001 | ||
| 45028_TS_DEWT_102014.nc | 26-Oct-2024 20:27 | 641478 | ||
| 45028_TS_DEWT_102015.nc | 26-Oct-2024 20:27 | 1266283 | ||
| 45028_TS_DEWT_102016.nc | 26-Oct-2024 20:27 | 1006321 | ||
| 45028_TS_DEWT_102017.nc | 26-Oct-2024 20:27 | 667914 | ||
| 45028_TS_DEWT_102018.nc | 26-Oct-2024 20:28 | 1103846 | ||
| 45028_TS_DEWT_102019.nc | 26-Oct-2024 20:28 | 1024810 | ||
| 45028_TS_DEWT_102020.nc | 26-Oct-2024 20:28 | 1026289 | ||
| 45028_TS_DEWT_102021.nc | 26-Oct-2024 20:28 | 1264800 | ||
| 45028_TS_DEWT_102022.nc | 26-Oct-2024 20:28 | 1111561 | ||
| 45028_TS_DEWT_102023.nc | 26-Oct-2024 20:28 | 453658 | ||
| 45028_TS_DEWT_102025.nc | 18-Jan-2026 17:22 | 420085 | ||
| 45028_TS_DEWT_112011.nc | 26-Oct-2024 20:28 | 1025694 | ||
| 45028_TS_DEWT_112012.nc | 26-Oct-2024 20:28 | 424400 | ||
| 45028_TS_DEWT_112014.nc | 26-Oct-2024 20:28 | 425968 | ||
| 45028_TS_DEWT_112015.nc | 26-Oct-2024 20:28 | 1108455 | ||
| 45028_TS_DEWT_112017.nc | 26-Oct-2024 20:28 | 445238 | ||
| 45028_TS_DEWT_112019.nc | 26-Oct-2024 20:28 | 1109780 | ||
| 45028_TS_DEWT_112020.nc | 26-Oct-2024 20:28 | 429124 | ||
| 45028_TS_DEWT_112023.nc | 26-Oct-2024 20:28 | 1262989 | ||